Dewpoint
72 71 70 69 68 66 64 63 63 63 64 64 63 63 63 64 63 63 64 63 64 64 65 65 65 65 64 65 65 65 65 64 65 65 65 65 65 65 65 65 64 64 65 65 65 65 65 65 65 65 65 64 64 63 63 63 63 62 62 61 60 59 59 57 56 55 56 58 57 57 58 59 58 60 59 60 60 60 60 60 60 59 59 59 59
71 71 69 68 67 66 64 63 63 63 63 63 63 63 63 64 63 64 63 63 64 64 64 64 65 64 64 64 64 64 64 64 64 64 64 64 64 65 65 65 64 65 65 64 65 65 65 65 64 64 64 64 64 63 62 62 62 61 61 60 60 58 59 58 58 57 53 56 57 59 58 58 58 60 59 59 60 60 59 59 59 59 59 58 58
71 70 69 67 66 65 64 63 63 63 63 63 63 63 63 63 64 63 62 62 64 64 64 64 65 64 64 64 64 64 64 64 64 64 64 64 64 64 65 65 65 65 65 65 65 65 64 64 64 64 64 63 63 63 62 62 61 61 61 60 60 59 59 59 58 57 55 54 56 56 57 58 58 58 60 60 60 60 59 59 59 58 59 59 58
70 69 68 67 66 64 63 63 62 62 62 62 62 62 62 63 64 63 62 62 62 64 64 64 64 64 64 64 64 64 64 64 64 64 64 64 64 64 64 64 65 65 65 65 65 65 64 64 64 63 63 63 63 62 62 62 61 61 61 61 60 60 59 59 58 58 57 55 55 55 56 57 58 59 60 60 59 60 59 59 59 58 58 58 59
70 69 67 66 65 64 63 63 63 63 62 62 62 62 62 62 63 63 62 62 62 63 64 64 64 64 63 63 63 64 63 64 64 64 64 64 64 64 63 64 64 65 65 65 65 65 65 64 64 64 63 63 63 62 62 62 61 61 60 60 60 60 59 59 59 57 57 56 55 57 58 58 58 59 60 59 59 59 59 58 58 58 58 58 58
69 68 66 66 65 64 63 63 63 63 63 63 63 62 62 62 62 63 62 61 62 62 62 63 63 63 63 63 63 63 63 64 64 64 63 64 64 64 64 64 64 64 64 64 65 65 65 65 64 64 63 62 63 63 62 62 61 61 60 60 60 60 59 59 59 58 58 57 57 56 57 57 57 59 60 60 58 57 57 57 58 58 58 58 56
69 68 66 66 65 65 64 64 65 64 65 64 64 63 62 62 61 62 63 62 61 62 62 62 63 63 63 63 63 63 63 63 63 63 63 64 64 64 64 64 64 64 64 64 64 64 64 64 64 64 64 63 63 62 62 62 61 61 61 60 60 60 59 59 60 59 58 57 57 57 57 58 59 58 59 60 59 58 56 56 55 57 58 58 57
68 68 67 67 66 65 66 64 65 65 65 64 63 63 63 62 62 62 63 63 62 62 62 62 62 63 63 63 63 64 63 63 63 63 64 63 64 64 64 64 64 64 64 64 64 64 64 64 64 64 64 63 63 63 62 62 62 61 61 60 60 60 60 60 59 59 58 57 56 56 57 57 58 59 60 60 57 57 57 56 54 55 56 57 57
68 67 67 67 65 65 65 65 64 64 64 63 63 63 63 63 63 63 63 63 63 62 62 62 62 62 63 63 63 63 63 62 63 63 63 63 64 63 64 64 64 64 64 64 64 64 64 64 63 63 64 63 62 61 61 60 62 62 61 61 61 61 60 59 59 58 58 57 57 57 58 57 57 57 56 56 55 55 57 57 56 56 56 56 56
67 67 66 65 65 65 65 65 64 64 63 63 63 63 63 63 63 63 63 64 63 63 62 62 60 60 61 62 62 62 62 63 64 63 62 63 62 63 64 64 64 64 64 64 63 63 63 63 63 64 63 61 61 60 59 58 58 60 62 62 62 61 60 59 59 58 58 57 57 57 57 56 56 57 56 57 57 58 57 56 55 55 56 56 56
67 67 65 64 65 65 65 65 64 64 64 64 63 63 63 64 64 64 64 63 63 63 62 61 60 60 60 60 61 61 62 62 62 60 61 63 64 63 63 64 64 64 64 63 63 63 63 63 63 63 63 63 64 62 60 59 59 58 57 57 59 62 60 60 59 59 58 57 58 57 57 56 56 57 57 57 57 57 57 56 56 55 55 54 52
66 66 65 65 65 65 65 64 64 64 65 64 64 64 64 64 64 64 63 63 63 62 62 61 61 60 60 60 60 61 62 62 60 60 61 61 63 65 64 64 63 63 63 63 63 63 63 62 62 63 63 63 63 63 62 61 60 59 58 57 57 56 57 61 60 59 58 58 58 58 57 57 57 57 56 56 56 57 57 56 56 55 55 53 53
66 65 65 65 64 64 64 63 64 63 64 65 64 64 64 64 63 63 62 63 63 62 62 61 61 61 61 61 61 61 62 61 60 60 60 60 60 62 64 64 64 63 63 63 63 63 62 62 62 62 62 61 63 63 63 63 60 59 58 58 57 56 56 56 57 60 60 59 58 58 58 58 57 57 58 58 58 57 57 56 56 56 55 54 54
66 65 65 64 64 63 62 61 61 62 64 65 64 64 64 63 63 63 64 63 62 62 61 61 61 61 61 62 62 62 62 61 59 59 58 58 59 61 63 63 64 63 63 63 62 62 62 62 61 61 61 62 62 62 62 62 62 61 61 61 61 60 57 56 56 55 57 59 59 58 59 59 58 58 59 59 58 57 56 55 56 55 55 54 55
65 65 64 64 64 63 61 60 61 61 63 64 64 64 64 63 62 62 62 62 62 62 62 61 61 62 62 63 62 62 62 60 58 58 57 57 58 60 63 63 63 63 62 62 62 61 61 61 61 61 61 62 62 62 62 62 61 61 61 60 60 60 60 59 59 59 59 58 58 59 59 59 59 59 59 59 58 58 58 57 57 56 55 55 55
64 64 64 64 63 62 61 60 61 61 63 64 64 64 62 61 58 57 60 62 62 62 62 61 61 62 63 63 62 62 62 59 58 57 57 57 58 62 62 62 62 62 61 61 61 61 61 61 61 61 61 62 60 58 59 61 61 61 60 60 60 60 59 58 57 58 59 59 59 58 58 58 56 58 58 57 57 57 56 56 56 56 55 54 54
64 64 63 64 63 62 61 61 61 61 63 63 63 62 61 59 58 62 62 62 61 61 61 61 63 62 62 63 62 62 63 60 57 56 56 56 58 62 61 61 61 60 60 60 60 60 60 61 61 61 61 61 59 57 57 57 60 60 59 59 59 59 59 59 56 55 54 53 52 53 53 53 53 53 52 53 55 55 56 55 54 54 54 52 52
64 64 63 63 63 62 62 61 61 62 62 63 63 63 61 59 61 63 62 62 61 61 61 62 63 63 63 62 62 62 62 61 56 54 54 55 59 60 60 60 60 60 60 59 60 60 60 61 62 62 62 61 58 56 55 56 58 59 59 58 58 57 56 56 56 57 54 53 53 53 53 53 53 53 53 53 52 53 56 54 54 54 53 54 53
64 64 64 63 63 63 62 62 62 62 63 63 63 62 61 61 62 63 62 62 62 62 63 62 63 63 63 63 63 63 63 61 55 54 53 54 58 60 60 60 59 60 59 59 59 60 60 60 60 60 59 59 54 53 53 54 58 58 58 57 56 55 56 56 54 54 54 54 55 55 55 54 57 56 57 54 54 54 57 56 57 55 54 53 53
64 64 64 64 63 63 63 63 62 63 63 63 63 62 61 62 62 62 63 63 63 62 63 63 62 63 62 63 63 64 64 63 62 55 54 52 54 61 60 59 59 59 59 58 59 59 59 58 58 56 55 53 52 51 50 50 56 58 56 55 55 55 56 54 54 53 54 54 54 54 54 55 55 55 55 54 54 56 55 55 56 56 54 53 53
65 65 64 64 63 63 63 63 63 64 64 64 64 63 62 62 63 63 63 63 63 63 63 63 62 62 62 63 62 62 62 62 62 55 52 52 53 57 58 59 59 58 58 57 57 57 58 57 56 55 53 52 51 50 48 49 51 54 54 55 56 54 51 52 53 53 54 54 54 54 54 54 54 53 54 54 54 54 54 54 54 54 54 53 53
65 64 64 63 63 63 63 64 63 63 64 64 63 62 63 63 63 63 64 64 63 62 62 62 62 61 60 61 61 62 62 62 62 58 53 51 51 54 58 59 59 58 58 58 57 56 56 56 56 55 53 51 49 47 46 46 49 52 54 51 50 50 53 53 54 53 52 52 53 53 53 53 52 52 52 52 52 53 51 52 52 53 53 54 54
65 64 64 63 64 64 64 64 64 63 63 63 63 63 64 64 64 64 63 63 62 62 61 61 60 60 60 60 61 61 60 61 60 61 54 49 49 51 54 56 54 58 58 57 57 56 55 55 55 54 51 48 45 45 45 46 47 51 49 48 48 50 52 54 53 51 52 51 51 51 52 52 51 51 52 52 52 52 52 52 52 53 54 55 56
64 64 64 64 64 64 64 65 64 64 64 64 64 63 64 64 64 64 63 63 62 61 60 60 59 59 59 60 59 60 59 59 59 60 57 51 49 48 49 50 52 55 56 55 55 54 54 54 54 49 46 43 43 44 45 46 53 48 46 47 49 50 53 53 52 50 51 50 50 50 51 51 51 51 51 52 52 53 52 53 54 54 54 55 55
64 64 64 63 64 64 64 64 64 64 64 64 64 63 63 63 63 62 62 62 61 61 60 59 59 60 60 59 59 58 58 59 60 60 58 54 49 48 49 48 48 48 53 54 56 55 53 48 46 45 46 45 45 46 47 49 48 48 48 48 50 53 52 52 51 49 49 49 49 49 50 50 50 51 51 51 52 53 53 53 53 54 54 55 55
63 63 63 63 63 64 64 64 65 65 65 65 64 64 63 63 62 62 61 61 61 60 59 59 59 58 58 59 58 57 58 59 58 58 58 55 51 50 50 51 51 50 51 54 52 51 50 48 49 50 49 50 55 57 55 54 50 50 50 50 50 52 51 51 50 49 48 49 49 49 50 50 50 50 51 51 51 51 52 52 53 53 53 54 54
63 63 63 63 64 64 64 65 65 65 64 64 64 64 63 63 62 62 61 61 60 59 59 59 59 59 59 58 58 58 58 56 55 53 52 53 53 53 52 53 54 53 53 54 52 51 52 54 52 51 50 51 52 51 52 51 52 51 50 51 50 51 51 50 49 48 48 48 48 49 49 50 50 50 50 50 50 51 51 53 51 51 52 53 52
62 62 62 62 63 65 65 66 65 64 64 63 62 62 61 62 61 61 60 60 60 59 59 59 59 58 59 57 57 58 57 55 54 52 49 51 51 49 49 53 52 51 51 51 50 50 53 52 52 55 52 50 48 47 48 49 49 49 49 49 49 49 46 45 45 47 48 48 48 49 49 49 48 48 49 49 49 50 51 52 51 51 51 51 51
62 62 62 63 63 65 64 66 64 62 57 53 49 48 51 56 58 54 52 52 56 59 59 58 59 58 58 58 58 58 57 56 55 49 52 49 49 47 48 48 49 49 50 46 50 52 53 51 52 48 48 47 45 44 44 45 46 45 44 44 46 46 47 46 45 46 46 47 47 47 47 47 47 47 48 47 48 49 50 50 50 50 50 51 51
62 62 62 62 62 63 63 63 61 59 56 54 50 48 47 42 46 53 51 49 47 44 50 58 58 56 54 50 53 58 57 57 44 41 40 40 40 41 43 42 41 45 44 45 49 50 49 50 47 46 45 45 43 43 41 42 43 42 43 42 44 44 45 45 44 45 46 47 47 46 46 46 46 46 46 47 47 48 49 48 49 50 49 49 49
62 62 62 62 62 63 62 61 60 58 56 55 54 51 50 47 40 41 45 45 43 41 43 45 47 50 53 49 47 46 45 41 40 39 39 39 39 38 38 38 38 38 41 48 49 49 47 47 45 46 45 43 42 41 41 41 42 40 40 42 43 44 43 43 43 44 45 46 46 46 46 46 46 46 46 46 46 47 48 49 49 49 49 49 49
62 62 62 62 63 63 62 61 58 56 56 55 54 54 52 50 49 42 39 41 41 40 40 41 42 43 45 48 46 47 43 40 40 40 40 39 39 38 38 38 38 38 40 43 50 47 47 46 44 42 42 41 42 42 40 39 41 40 39 38 39 41 41 41 43 43 44 45 45 45 44 45 45 45 45 45 46 46 46 47 47 47 48 49 49
62 62 62 63 63 64 61 59 58 56 55 55 55 54 54 53 51 49 47 41 39 39 39 40 41 41 41 41 43 43 43 40 39 39 39 39 38 39 39 38 38 38 41 47 47 45 44 44 42 42 41 40 41 40 40 39 39 40 38 37 36 38 40 41 43 44 44 43 42 43 44 44 44 44 44 44 44 45 45 46 46 47 47 47 49
62 62 62 62 63 62 60 59 57 57 56 56 55 55 55 54 52 50 49 49 49 45 41 39 39 39 39 39 39 38 37 39 39 39 38 39 39 39 41 44 38 38 44 48 44 44 44 43 43 42 43 42 39 38 39 40 40 39 39 35 37 38 40 42 42 41 42 41 40 40 42 41 42 42 42 42 43 44 44 45 45 45 46 47 47
63 65 65 65 62 61 60 59 57 57 56 56 56 57 56 55 54 52 51 51 50 49 47 47 43 40 44 41 37 37 38 40 40 39 40 40 41 41 42 48 47 45 46 46 47 45 46 46 45 44 44 40 39 39 38 39 38 37 38 36 38 38 39 40 40 40 40 40 40 40 41 41 40 41 41 42 42 42 43 43 43 44 45 46 47
63 65 66 65 63 61 60 59 57 57 57 57 57 57 57 56 55 54 52 53 51 50 48 48 48 44 41 38 37 38 38 40 40 39 40 41 41 43 50 47 46 46 46 46 46 46 46 45 43 42 41 40 40 39 38 37 37 35 37 35 37 37 38 39 40 40 40 39 38 39 39 39 39 40 40 40 41 41 41 41 42 43 45 46 47
63 64 64 63 62 61 60 58 57 57 57 57 57 57 57 56 55 54 54 53 52 51 48 49 49 50 49 48 42 39 38 39 40 40 40 40 40 48 49 48 47 46 46 45 46 45 44 43 43 43 43 40 40 38 38 36 36 36 38 36 37 37 39 39 39 40 39 38 38 38 38 38 39 40 40 40 40 39 40 40 41 42 43 46 46
63 62 62 61 61 60 59 58 58 58 58 57 57 57 57 56 55 54 53 52 52 50 48 49 49 49 49 51 50 50 47 40 40 41 42 42 46 50 49 48 48 47 46 46 45 44 43 43 43 42 40 37 36 35 35 35 35 35 35 36 38 38 37 38 39 38 40 38 37 37 38 38 38 39 40 39 39 39 39 40 39 39 41 44 44
61 59 59 59 60 60 60 59 59 58 58 57 57 57 56 55 55 54 53 53 52 50 49 49 50 49 51 53 52 52 50 50 49 49 48 47 46 47 47 47 47 46 46 45 44 43 43 43 42 39 38 36 36 35 34 33 34 35 36 35 36 35 36 35 36 37 37 36 36 37 37 37 38 40 40 39 39 39 38 38 39 39 39 40 42
59 60 60 59 60 60 61 61 60 59 59 57 57 57 57 56 55 54 54 53 51 50 49 50 50 50 52 51 51 50 49 50 49 49 47 46 46 46 46 46 46 46 45 45 44 44 43 42 41 38 37 36 34 33 34 33 34 35 36 36 35 36 34 34 34 35 35 36 36 36 37 37 38 40 40 40 39 39 38 39 39 40 40 40 41
59 60 61 59 59 60 61 60 59 59 59 58 58 57 57 56 56 55 54 53 52 51 51 50 51 52 52 48 45 46 50 50 49 49 47 46 46 45 45 45 46 45 46 45 45 44 42 41 38 36 34 32 33 32 30 30 32 33 35 35 33 35 33 34 34 34 34 35 35 36 37 37 38 39 39 40 40 39 39 39 39 39 40 39 40
59 59 59 59 60 60 60 59 59 59 59 59 58 58 58 57 56 56 55 54 54 52 51 51 50 51 47 43 42 42 48 50 49 48 47 47 46 45 46 45 45 45 45 45 45 45 42 40 38 35 35 34 31 32 30 28 30 29 31 34 34 33 32 32 33 34 34 34 35 36 37 37 38 39 39 40 39 38 38 38 39 39 39 39 39
60 59 59 60 60 59 59 58 58 57 57 58 58 59 58 58 57 56 56 55 55 54 52 51 50 50 48 43 44 44 48 49 49 48 47 47 46 46 45 44 43 44 44 44 45 44 42 39 37 34 33 31 31 31 26 26 28 27 28 30 33 34 30 31 31 32 32 34 34 37 37 37 38 37 38 40 38 39 39 39 39 39 39 39 39
58 59 59 59 59 59 58 57 57 57 57 57 58 58 58 57 57 57 56 56 55 54 52 51 50 50 49 44 44 46 47 47 48 47 48 47 46 46 45 44 43 43 43 44 43 41 38 37 35 33 32 30 30 31 27 27 27 27 27 26 29 33 29 29 30 30 31 32 34 36 36 37 38 37 38 40 39 39 39 39 39 39 39 39 39
58 58 58 58 58 57 57 57 57 56 57 58 57 57 57 56 55 55 55 55 55 54 52 52 50 50 48 46 46 47 47 47 48 48 47 47 46 46 45 44 43 44 44 44 41 39 37 35 33 33 31 30 30 30 29 29 30 28 27 28 27 27 26 28 29 30 32 34 33 34 35 36 37 37 38 39 39 39 39 39 39 40 39 40 39
59 59 59 58 58 57 56 56 57 56 56 55 55 56 55 54 54 54 54 54 54 53 52 51 50 49 48 46 46 47 47 46 47 47 47 47 46 46 45 43 43 43 43 41 39 38 35 34 33 32 31 31 30 30 29 31 32 31 31 29 29 28 29 30 31 32 33 33 33 34 35 37 37 37 39 39 38 39 39 40 40 40 40 40 39
58 58 58 57 56 56 56 56 55 55 54 54 54 54 54 53 53 54 55 54 53 53 51 50 49 48 48 46 46 46 47 47 46 46 47 47 46 46 45 44 42 43 42 41 39 37 37 37 34 33 33 32 32 33 30 28 28 27 30 31 31 30 31 32 33 34 33 33 35 35 35 37 37 37 38 39 38 39 40 39 39 40 40 40 39
57 58 57 57 56 56 55 55 56 56 54 54 53 54 54 53 53 53 53 54 54 52 50 50 49 48 48 46 47 46 46 46 46 46 46 46 46 45 45 45 43 42 42 41 39 37 37 36 35 35 35 36 35 32 32 30 28 29 28 29 31 31 34 34 34 33 33 34 35 37 37 37 36 37 38 39 38 39 39 38 39 39 39 38 38
56 56 56 56 56 56 55 55 56 54 53 53 53 53 53 53 52 53 53 53 53 52 50 49 48 47 47 47 47 46 47 48 46 46 46 46 46 44 44 44 44 42 41 40 39 38 38 36 35 34 34 35 35 34 32 32 30 29 29 30 31 33 32 32 32 33 34 36 36 37 38 38 37 38 39 39 38 39 40 39 39 39 38 38 38
57 57 57 57 56 54 55 54 53 53 53 52 52 52 52 53 52 52 52 52 52 52 51 49 48 47 46 46 47 46 46 46 46 45 45 46 45 44 44 44 44 42 42 41 39 38 37 36 36 35 34 34 34 34 33 33 32 29 29 30 32 32 31 31 33 33 34 36 37 38 38 38 38 38 38 39 38 39 40 39 39 39 38 38 38
56 55 55 54 53 53 53 52 52 52 52 52 52 51 52 52 51 51 50 51 51 51 51 50 49 47 46 46 47 46 46 46 47 46 45 45 45 44 44 44 43 43 42 41 40 38 37 36 34 35 34 35 34 33 33 33 32 29 30 32 32 31 31 31 33 31 33 34 37 40 39 38 38 38 38 39 39 38 39 39 39 38 37 37 38